Simultaneous Nadir Overpasses (SNOs) Predictions

Prediction of SNOs between FY3D and METOP-C Satellite Orbit:

Table of predicted SNOs for the next 14.0 days since TLE Epoch: 10/28/2022
Index Date (FY3D) Time (FY3D) Lat,Lon (FY3D) SZA (FY3D ) Date (METOP-C) Time (METOP-C) Lat,Lon (METOP-C) SZA (METOP-C ) Distance(km) Time Diff (sec)
1 11/10/2022 07:17:46 74.97, 64.26 92.06 11/10/2022 07:18:52 74.92, 67.32 92.00 88.63 66
2 11/10/2022 08:08:29 -74.90,-128.23 88.01 11/10/2022 08:09:36 -74.87,-125.50 88.05 79.35 67
3 11/10/2022 08:59:10 74.62, 39.86 91.72 11/10/2022 09:00:21 74.56, 41.01 91.65 34.60 71
4 11/10/2022 09:49:53 -74.56,-152.65 88.34 11/10/2022 09:51:05 -74.51,-151.81 88.39 25.43 72
5 11/10/2022 10:40:36 74.37, 15.16 91.48 11/10/2022 10:41:47 74.35, 15.10 91.46 2.99 71
6 11/10/2022 11:31:20 -74.35,-177.48 88.53 11/10/2022 11:32:30 -74.35,-177.58 88.54 2.95 70
7 11/10/2022 12:22:07 74.36, -10.19 91.49 11/10/2022 12:23:08 74.38, -10.16 91.51 2.32 61
8 11/10/2022 13:12:51 -74.34, 157.17 88.52 11/10/2022 13:13:51 -74.38, 157.16 88.49 3.84 60
9 11/10/2022 14:03:38 74.35, -35.54 91.50 11/10/2022 14:04:30 74.36, -35.54 91.51 1.20 52
10 11/10/2022 14:54:22 -74.33, 131.82 88.51 11/10/2022 14:55:13 -74.36, 131.77 88.49 3.25 51
11 11/10/2022 15:45:09 74.34, -60.89 91.51 11/10/2022 15:45:52 74.34, -60.93 91.51 1.23 43
12 11/10/2022 16:35:53 -74.32, 106.47 88.50 11/10/2022 16:36:35 -74.34, 106.39 88.49 3.23 42
13 11/10/2022 17:26:40 74.33, -86.24 91.52 11/10/2022 17:27:14 74.32, -86.32 91.51 2.36 34
14 11/10/2022 18:17:24 -74.31, 81.12 88.50 11/10/2022 18:17:57 -74.32, 81.00 88.48 3.78 33
15 11/10/2022 19:08:11 74.32,-111.59 91.53 11/10/2022 19:08:36 74.30,-111.71 91.51 3.69 25
16 11/10/2022 19:58:56 -74.35, 55.64 88.44 11/10/2022 19:59:18 -74.35, 55.74 88.43 2.93 22
17 11/10/2022 20:49:42 74.30,-136.94 91.53 11/10/2022 20:49:57 74.33,-136.97 91.56 3.30 15
18 11/10/2022 21:40:27 -74.34, 30.29 88.43 11/10/2022 21:40:40 -74.33, 30.35 88.43 1.84 13
19 11/10/2022 22:31:13 74.29,-162.30 91.54 11/10/2022 22:31:19 74.31,-162.36 91.56 3.01 6
20 11/10/2022 23:21:58 -74.32, 4.94 88.42 11/10/2022 23:22:02 -74.31, 4.96 88.43 1.49 4
21 11/11/2022 00:12:44 74.28, 172.35 91.55 11/11/2022 00:12:41 74.30, 172.25 91.57 3.35 3
22 11/11/2022 01:03:29 -74.31, -20.41 88.41 11/11/2022 01:03:24 -74.29, -20.43 88.43 2.24 5
23 11/11/2022 01:54:16 74.32, 146.88 91.61 11/11/2022 01:54:02 74.33, 146.99 91.62 3.56 14
24 11/11/2022 02:44:59 -74.30, -45.76 88.40 11/11/2022 02:44:44 -74.32, -45.69 88.38 3.23 15
25 11/11/2022 03:35:46 74.31, 121.53 91.62 11/11/2022 03:35:23 74.31, 121.60 91.62 2.39 23



Historial Predications of SNOs between FY3D and METOP-C
